星链-30200 (STARLINK-30200 )

导读

STARLINK-30200是美国太空探索技术公司星链(Starlink)星座的卫星,于2023年7月10日发射,归属星链Gen2系列,用于为全球提供低延迟、高速率的宽带互联网服务,属于低轨通信卫星,是星链组网扩张的组成部分,进一步完善了星链星座的全球覆盖能力与通信容量。

基本信息
目录编号:
57306
目录名称:
STARLINK-30200
国际标识:
2023-096S
轨道中心:
EARTH
卫星名称:
星链-30200
卫星全名:
星链-30200 (STARLINK-30200 )
卫星状态:
已陨落 最后检测时间 2026-02-24
发射日期:
2023-07-10 UTC
国别 :
美国 (US)
星等 :
--
轨道信息
数据来源 国际轨道数据
星历时间: 2026-02-24T03:40:00+0800
轨道信息已过期114天
半长轴: 6594.138km
偏心率: 0.0017923
轨道倾角: 42.958°
近地点辐角 314.319°
升交点赤经 210.935°
平近点角 45.622°
近地点: 204.182km
远地点: 227.82km
周期: 88.817分钟
每日圈数: 16.213089
详细信息
固有亮度:
5
最大亮度:
0.3
卫星平台:
Starlink v2.0 mini
覆盖范围:
全球
运营商:
太空探索技术公司
运营商所在国:
美国
制造商(研发单位):
太空探索技术公司
制造商所在国:
美国
使用方式:
暂无
卫星简介
星链(Starlink)计划是由太空探索技术公司(SpaceX)提出的一个巨型低轨卫星互联网星座项目,计划在2019年至2024年间在太空搭建由约1.2万颗卫星组成的“星链”网络,其中1584颗将部署在地球上空550千米处的近地轨道,并从2020年开始工作。该卫星仍在工作。